Location: Newark
(44.1667°N, 8.2500°E)
Time: 17:17:21
(UTC+00:00)

Courier 1B Rocket - Visible Passes

Search period start: 05 December 2019 00:00
Search period end: 15 December 2019 00:00
Orbit: 920 x 1202 km, 28.2° (Epoch: 05 December)

Date Brightness Start Highest point End Pass type
(mag) Time Alt. Az. Time Alt. Az. Time Alt. Az.
09 Dec 7.6 05:35:19 10° S 05:37:16 11° SSE 05:39:11 10° SE visible
11 Dec 7.4 05:24:31 10° SSW 05:28:09 15° SSE 05:31:41 10° SE visible
12 Dec 7.5 04:24:39 10° S 04:27:25 13° SSE 04:30:08 10° SE visible
12 Dec 7.3 06:15:13 10° SW 06:19:48 19° S 06:24:13 10° SE visible
13 Dec 7.2 05:14:33 10° SSW 05:19:03 18° S 05:23:23 10° SE visible
14 Dec 7.3 04:14:07 10° SSW 04:18:18 16° SSE 04:22:19 10° SE visible
14 Dec 7.1 06:05:51 10° SW 06:10:44 20° S 06:15:24 10° SE visible
